• In Belarus
  • List of Countries
  • For 7 days
  • Water Temperature
  • Satellite Maps
  • Weather Map
  • Weather Widgets
  • user-avatar
    Login

    Hourly Weather Mundahan

    Today, 22 June, Friday

    Time Temperature Precipitation Wind Pressure Humidity
    00:00 +28°C° 0.4 mm 3 mps 740 mmHg 84%
    01:00 +28°C° 0.4 mm 3 mps 740 mmHg 85%
    02:00 +28°C° 0.2 mm 2 mps 739 mmHg 86%
    03:00 +28°C° 0.2 mm 2 mps 739 mmHg 86%
    04:00 +27°C° 0.2 mm 2 mps 739 mmHg 87%
    05:00 +28°C° 0.8 mm 3 mps 739 mmHg 86%
    06:00 +28°C° 0.8 mm 3 mps 740 mmHg 85%
    07:00 +28°C° 0.8 mm 3 mps 740 mmHg 84%
    08:00 +29°C° 0.9 mm 4 mps 740 mmHg 80%
    09:00 +30°C° 0.9 mm 4 mps 740 mmHg 75%
    10:00 +32°C° 0.9 mm 4 mps 740 mmHg 70%
    11:00 +33°C° 0.4 mm 4 mps 740 mmHg 66%
    12:00 +34°C° 0.4 mm 4 mps 740 mmHg 62%
    13:00 +35°C° 0.4 mm 3 mps 739 mmHg 58%
    14:00 +35°C° 0 mm 3 mps 739 mmHg 57%
    15:00 +36°C° 0 mm 3 mps 738 mmHg 55%
    16:00 +36°C° 0 mm 3 mps 737 mmHg 53%
    17:00 +35°C° 0 mm 3 mps 737 mmHg 57%
    18:00 +34°C° 0 mm 2 mps 737 mmHg 61%
    19:00 +31°C° 0 mm 2 mps 737 mmHg 66%
    20:00 +31°C° 0 mm 2 mps 738 mmHg 67%
    21:00 +31°C° 0 mm 2 mps 739 mmHg 68%
    22:00 +30°C° 0 mm 3 mps 739 mmHg 69%
    23:00 +30°C° 0 mm 3 mps 739 mmHg 70%

    Tomorrow, 23 June, Saturday

    Time Temperature Precipitation Wind Pressure Humidity
    00:00 +29°C° 0 mm 3 mps 739 mmHg 72%
    01:00 +29°C° 0 mm 3 mps 739 mmHg 74%
    02:00 +29°C° 0 mm 3 mps 739 mmHg 76%
    03:00 +28°C° 0 mm 3 mps 738 mmHg 77%
    04:00 +28°C° 0 mm 3 mps 738 mmHg 79%
    05:00 +28°C° 0 mm 3 mps 739 mmHg 78%
    06:00 +29°C° 0 mm 3 mps 739 mmHg 78%
    07:00 +29°C° 0 mm 4 mps 739 mmHg 77%
    08:00 +30°C° 0.2 mm 4 mps 739 mmHg 71%
    09:00 +33°C° 0.2 mm 4 mps 740 mmHg 65%
    10:00 +34°C° 0.2 mm 5 mps 740 mmHg 59%
    11:00 +35°C° 0 mm 4 mps 739 mmHg 56%
    12:00 +36°C° 0 mm 4 mps 739 mmHg 52%
    13:00 +37°C° 0 mm 4 mps 739 mmHg 48%
    14:00 +37°C° 0 mm 4 mps 738 mmHg 49%
    15:00 +37°C° 0 mm 3 mps 737 mmHg 50%
    16:00 +37°C° 0 mm 3 mps 737 mmHg 51%
    17:00 +35°C° 0 mm 3 mps 737 mmHg 54%
    18:00 +34°C° 0 mm 3 mps 737 mmHg 58%
    19:00 +32°C° 0 mm 2 mps 738 mmHg 62%
    20:00 +32°C° 0 mm 2 mps 738 mmHg 63%
    21:00 +31°C° 0 mm 3 mps 738 mmHg 64%
    22:00 +31°C° 0 mm 3 mps 739 mmHg 65%
    23:00 +30°C° 0.5 mm 3 mps 739 mmHg 68%

    Day after tomorrow, 24 June, Sunday

    Time Temperature Precipitation Wind Pressure Humidity
    00:00 +30°C° 0.5 mm 3 mps 738 mmHg 72%
    01:00 +29°C° 0.5 mm 2 mps 738 mmHg 75%
    02:00 +29°C° 0.1 mm 2 mps 738 mmHg 76%
    03:00 +28°C° 0.1 mm 2 mps 738 mmHg 77%
    04:00 +28°C° 0.1 mm 2 mps 738 mmHg 78%
    05:00 +28°C° 0 mm 3 mps 738 mmHg 78%
    06:00 +28°C° 0 mm 3 mps 739 mmHg 77%
    07:00 +29°C° 0 mm 4 mps 739 mmHg 77%
    08:00 +30°C° 0.2 mm 4 mps 739 mmHg 72%
    09:00 +33°C° 0.2 mm 4 mps 739 mmHg 67%
    10:00 +34°C° 0.2 mm 4 mps 740 mmHg 62%
    11:00 +35°C° 0.5 mm 4 mps 739 mmHg 59%
    12:00 +35°C° 0.5 mm 4 mps 739 mmHg 56%
    13:00 +36°C° 0.5 mm 3 mps 738 mmHg 52%
    14:00 +36°C° 0.1 mm 3 mps 738 mmHg 53%
    15:00 +36°C° 0.1 mm 3 mps 737 mmHg 53%
    16:00 +36°C° 0.1 mm 3 mps 736 mmHg 53%
    17:00 +35°C° 0 mm 2 mps 737 mmHg 56%
    18:00 +34°C° 0 mm 2 mps 737 mmHg 59%
    19:00 +32°C° 0 mm 2 mps 737 mmHg 62%
    20:00 +32°C° 0.1 mm 2 mps 738 mmHg 62%
    21:00 +31°C° 0.1 mm 2 mps 738 mmHg 63%
    22:00 +31°C° 0.1 mm 2 mps 739 mmHg 64%
    23:00 +30°C° 0.2 mm 2 mps 739 mmHg 68%

    25 June, Monday

    Time Temperature Precipitation Wind Pressure Humidity
    00:00 +29°C° 0.2 mm 2 mps 738 mmHg 72%
    01:00 +29°C° 0.2 mm 2 mps 738 mmHg 77%
    02:00 +28°C° 0.1 mm 2 mps 738 mmHg 78%
    03:00 +28°C° 0.1 mm 2 mps 738 mmHg 79%
    04:00 +28°C° 0.1 mm 2 mps 737 mmHg 80%
    05:00 +28°C° 0 mm 2 mps 738 mmHg 79%
    06:00 +29°C° 0 mm 2 mps 738 mmHg 78%
    07:00 +29°C° 0 mm 3 mps 739 mmHg 77%
    08:00 +30°C° 0.3 mm 3 mps 739 mmHg 71%
    09:00 +33°C° 0.3 mm 3 mps 739 mmHg 66%
    10:00 +34°C° 0.3 mm 4 mps 739 mmHg 60%
    11:00 +35°C° 0.6 mm 4 mps 739 mmHg 57%
    12:00 +36°C° 0.6 mm 3 mps 738 mmHg 54%
    13:00 +36°C° 0.6 mm 3 mps 738 mmHg 51%
    14:00 +36°C° 0.6 mm 3 mps 737 mmHg 53%
    15:00 +35°C° 0.6 mm 3 mps 737 mmHg 55%
    16:00 +35°C° 0.6 mm 3 mps 736 mmHg 57%
    17:00 +34°C° 0.3 mm 3 mps 737 mmHg 63%
    18:00 +31°C° 0.3 mm 3 mps 737 mmHg 68%
    19:00 +30°C° 0.3 mm 3 mps 737 mmHg 73%
    20:00 +30°C° 0 mm 3 mps 738 mmHg 76%
    21:00 +29°C° 0 mm 3 mps 738 mmHg 79%
    22:00 +29°C° 0 mm 3 mps 739 mmHg 81%
    23:00 +28°C° 0.5 mm 3 mps 738 mmHg 82%

    26 June, Tuesday

    Time Temperature Precipitation Wind Pressure Humidity
    00:00 +28°C° 0.5 mm 2 mps 738 mmHg 82%
    01:00 +28°C° 0.5 mm 2 mps 738 mmHg 82%
    02:00 +28°C° 0.9 mm 2 mps 738 mmHg 82%
    03:00 +28°C° 0.9 mm 2 mps 738 mmHg 82%
    04:00 +28°C° 0.9 mm 2 mps 738 mmHg 82%
    05:00 +28°C° 0.3 mm 2 mps 738 mmHg 81%
    06:00 +28°C° 0.3 mm 2 mps 739 mmHg 80%
    07:00 +28°C° 0.3 mm 3 mps 739 mmHg 80%
    08:00 +29°C° 1.2 mm 3 mps 740 mmHg 76%
    09:00 +30°C° 1.2 mm 3 mps 740 mmHg 73%
    10:00 +32°C° 1.2 mm 4 mps 740 mmHg 69%
    11:00 +33°C° 0.7 mm 3 mps 740 mmHg 68%
    12:00 +33°C° 0.7 mm 3 mps 739 mmHg 68%
    13:00 +33°C° 0.7 mm 3 mps 739 mmHg 67%
    14:00 +33°C° 0.3 mm 3 mps 738 mmHg 67%
    15:00 +33°C° 0.3 mm 3 mps 738 mmHg 66%
    16:00 +33°C° 0.3 mm 3 mps 738 mmHg 66%
    17:00 +31°C° 0.2 mm 3 mps 738 mmHg 70%
    18:00 +30°C° 0.2 mm 3 mps 738 mmHg 74%
    19:00 +29°C° 0.2 mm 3 mps 738 mmHg 79%
    20:00 +29°C° 0.1 mm 3 mps 739 mmHg 80%
    21:00 +28°C° 0.1 mm 3 mps 739 mmHg 82%
    22:00 +28°C° 0.1 mm 3 mps 740 mmHg 84%
    23:00 +28°C° 0.5 mm 3 mps 740 mmHg 85%

    27 June, Wednesday

    Time Temperature Precipitation Wind Pressure Humidity
    00:00 +27°C° 0.5 mm 2 mps 739 mmHg 86%
    01:00 +27°C° 0.5 mm 2 mps 739 mmHg 87%
    02:00 +27°C° 1.2 mm 2 mps 739 mmHg 88%
    03:00 +27°C° 1.2 mm 2 mps 739 mmHg 88%
    04:00 +26°C° 1.2 mm 2 mps 739 mmHg 89%
    05:00 +27°C° 0.8 mm 2 mps 739 mmHg 88%
    06:00 +27°C° 0.8 mm 2 mps 740 mmHg 86%
    07:00 +28°C° 0.8 mm 2 mps 740 mmHg 85%
    08:00 +29°C° 0.5 mm 2 mps 740 mmHg 79%
    09:00 +30°C° 0.5 mm 3 mps 740 mmHg 74%
    10:00 +33°C° 0.5 mm 4 mps 740 mmHg 68%
    11:00 +33°C° 0.7 mm 4 mps 740 mmHg 65%
    12:00 +34°C° 0.7 mm 3 mps 739 mmHg 62%
    13:00 +35°C° 0.7 mm 3 mps 739 mmHg 58%
    14:00 +35°C° 0.1 mm 3 mps 739 mmHg 57%
    15:00 +35°C° 0.1 mm 3 mps 738 mmHg 55%
    16:00 +36°C° 0.1 mm 3 mps 738 mmHg 53%
    17:00 +34°C° 0 mm 2 mps 738 mmHg 57%
    18:00 +32°C° 0 mm 2 mps 738 mmHg 61%
    19:00 +31°C° 0 mm 2 mps 739 mmHg 65%
    20:00 +31°C° 0 mm 2 mps 739 mmHg 66%
    21:00 +30°C° 0 mm 2 mps 740 mmHg 67%
    22:00 +30°C° 0 mm 2 mps 740 mmHg 68%
    23:00 +29°C° 0 mm 2 mps 740 mmHg 70%
    Show more